When you browse on this site, cookies collect data to enhance your experience and personalize the content and advertising you see.
Visit our Privacy Policy to learn more. By continuing to use the site, you agree to this use of cookies and data.
EN

Hourly Weather Garmisch-Partenkirchen

Today, 13 August, Thursday

Time Temperature Precipitation Wind Pressure Humidity
00:00 +18°C° 0.1 mm 1 mps 678 mmHg 88%
01:00 +18°C° 0 mm 1 mps 677 mmHg 88%
02:00 +18°C° 0.1 mm 1 mps 677 mmHg 88%
03:00 +18°C° 0.1 mm 1 mps 677 mmHg 88%
04:00 +18°C° 0.1 mm 1 mps 677 mmHg 88%
05:00 +18°C° 0.1 mm 1 mps 677 mmHg 87%
06:00 +19°C° 0.1 mm 1 mps 677 mmHg 86%
07:00 +20°C° 0.1 mm 1 mps 678 mmHg 85%
08:00 +22°C° 0.1 mm 1 mps 678 mmHg 77%
09:00 +24°C° 0.1 mm 1 mps 678 mmHg 69%
10:00 +24°C° 0.1 mm 0 mps 678 mmHg 60%
11:00 +25°C° 0.9 mm 1 mps 678 mmHg 65%
12:00 +25°C° 0.9 mm 1 mps 678 mmHg 70%
13:00 +24°C° 0.9 mm 1 mps 678 mmHg 74%
14:00 +24°C° 1.3 mm 1 mps 678 mmHg 78%
15:00 +23°C° 1.3 mm 1 mps 677 mmHg 81%
16:00 +23°C° 1.3 mm 1 mps 677 mmHg 85%
17:00 +21°C° 0.6 mm 1 mps 677 mmHg 87%
18:00 +20°C° 0.6 mm 1 mps 677 mmHg 90%
19:00 +19°C° 0.6 mm 1 mps 677 mmHg 92%
20:00 +18°C° 0.1 mm 1 mps 677 mmHg 92%
21:00 +18°C° 0.1 mm 1 mps 677 mmHg 92%
22:00 +16°C° 0.1 mm 1 mps 677 mmHg 92%
23:00 +16°C° 0 mm 1 mps 676 mmHg 92%

Tomorrow, 14 August, Friday

Time Temperature Precipitation Wind Pressure Humidity
00:00 +16°C° 0 mm 1 mps 676 mmHg 92%
01:00 +15°C° 0 mm 1 mps 676 mmHg 92%
02:00 +15°C° 0 mm 1 mps 676 mmHg 92%
03:00 +15°C° 0 mm 1 mps 675 mmHg 92%
04:00 +15°C° 0 mm 1 mps 675 mmHg 91%
05:00 +16°C° 0 mm 1 mps 676 mmHg 90%
06:00 +16°C° 0 mm 1 mps 676 mmHg 88%
07:00 +16°C° 0 mm 0 mps 676 mmHg 86%
08:00 +19°C° 0.7 mm 1 mps 676 mmHg 86%
09:00 +20°C° 0.7 mm 1 mps 677 mmHg 85%
10:00 +21°C° 0.7 mm 1 mps 677 mmHg 85%
11:00 +20°C° 1.4 mm 1 mps 677 mmHg 87%
12:00 +20°C° 1.4 mm 1 mps 676 mmHg 89%
13:00 +19°C° 1.4 mm 1 mps 676 mmHg 92%
14:00 +19°C° 0.7 mm 1 mps 676 mmHg 91%
15:00 +19°C° 0.7 mm 1 mps 676 mmHg 91%
16:00 +19°C° 0.7 mm 1 mps 676 mmHg 91%
17:00 +18°C° 0.3 mm 1 mps 676 mmHg 91%
18:00 +18°C° 0.3 mm 1 mps 676 mmHg 92%
19:00 +16°C° 0.3 mm 1 mps 676 mmHg 93%
20:00 +15°C° 0 mm 1 mps 676 mmHg 92%
21:00 +15°C° 0 mm 1 mps 676 mmHg 92%
22:00 +14°C° 0 mm 1 mps 676 mmHg 91%
23:00 +14°C° 0 mm 1 mps 676 mmHg 90%

Day after tomorrow, 15 August, Saturday

Time Temperature Precipitation Wind Pressure Humidity
00:00 +14°C° 0 mm 1 mps 676 mmHg 90%
01:00 +13°C° 0 mm 1 mps 676 mmHg 89%
02:00 +13°C° 0 mm 1 mps 676 mmHg 89%
03:00 +13°C° 0 mm 1 mps 676 mmHg 89%
04:00 +13°C° 0 mm 1 mps 676 mmHg 89%
05:00 +14°C° 0 mm 1 mps 676 mmHg 87%
06:00 +15°C° 0 mm 1 mps 676 mmHg 86%
07:00 +16°C° 0 mm 1 mps 676 mmHg 85%
08:00 +19°C° 0 mm 1 mps 677 mmHg 75%
09:00 +22°C° 0 mm 1 mps 677 mmHg 65%
10:00 +25°C° 0 mm 1 mps 678 mmHg 55%
11:00 +25°C° 0 mm 1 mps 678 mmHg 51%
12:00 +26°C° 0 mm 1 mps 678 mmHg 47%
13:00 +27°C° 0 mm 1 mps 677 mmHg 44%
14:00 +27°C° 0 mm 1 mps 677 mmHg 47%
15:00 +26°C° 0 mm 2 mps 677 mmHg 50%
16:00 +25°C° 0 mm 2 mps 676 mmHg 53%
17:00 +23°C° 0.2 mm 1 mps 676 mmHg 65%
18:00 +21°C° 0.2 mm 1 mps 676 mmHg 78%
19:00 +19°C° 0.2 mm 1 mps 675 mmHg 91%
20:00 +18°C° 0 mm 1 mps 675 mmHg 92%
21:00 +16°C° 0 mm 1 mps 675 mmHg 94%
22:00 +16°C° 0 mm 1 mps 675 mmHg 95%
23:00 +15°C° 0 mm 1 mps 675 mmHg 95%

16 August, Sunday

Time Temperature Precipitation Wind Pressure Humidity
00:00 +15°C° 0 mm 1 mps 675 mmHg 95%
01:00 +15°C° 0 mm 1 mps 675 mmHg 95%
02:00 +15°C° 0 mm 1 mps 674 mmHg 94%
03:00 +14°C° 0 mm 1 mps 674 mmHg 94%
04:00 +14°C° 0 mm 1 mps 674 mmHg 93%
05:00 +15°C° 0 mm 1 mps 674 mmHg 91%
06:00 +16°C° 0 mm 1 mps 675 mmHg 88%
07:00 +18°C° 0 mm 1 mps 675 mmHg 85%
08:00 +21°C° 0.1 mm 1 mps 676 mmHg 75%
09:00 +23°C° 0.1 mm 1 mps 676 mmHg 65%
10:00 +26°C° 0.1 mm 1 mps 677 mmHg 54%
11:00 +26°C° 0.2 mm 1 mps 677 mmHg 51%
12:00 +27°C° 0.2 mm 1 mps 676 mmHg 48%
13:00 +27°C° 0.2 mm 1 mps 676 mmHg 45%
14:00 +27°C° 0.5 mm 1 mps 676 mmHg 48%
15:00 +26°C° 0.5 mm 1 mps 676 mmHg 50%
16:00 +26°C° 0.5 mm 1 mps 676 mmHg 53%
17:00 +24°C° 0.3 mm 1 mps 675 mmHg 62%
18:00 +20°C° 0.3 mm 0 mps 675 mmHg 72%
19:00 +18°C° 0.3 mm 0 mps 675 mmHg 81%
20:00 +17°C° 0 mm 0 mps 675 mmHg 83%
21:00 +18°C° 0 mm 1 mps 675 mmHg 84%
22:00 +16°C° 0 mm 1 mps 675 mmHg 86%
23:00 +16°C° 0 mm 1 mps 674 mmHg 86%

17 August, Monday

Time Temperature Precipitation Wind Pressure Humidity
00:00 +16°C° 0 mm 1 mps 674 mmHg 85%
01:00 +15°C° 0 mm 1 mps 674 mmHg 85%
02:00 +15°C° 0 mm 1 mps 674 mmHg 84%
03:00 +15°C° 0 mm 1 mps 674 mmHg 83%
04:00 +15°C° 0 mm 1 mps 674 mmHg 82%
05:00 +16°C° 0 mm 1 mps 674 mmHg 80%
06:00 +18°C° 0 mm 1 mps 674 mmHg 79%
07:00 +19°C° 0 mm 1 mps 674 mmHg 77%
08:00 +20°C° 0.1 mm 1 mps 674 mmHg 73%
09:00 +21°C° 0.1 mm 1 mps 675 mmHg 69%
10:00 +23°C° 0.1 mm 1 mps 675 mmHg 65%
11:00 +23°C° 0.8 mm 1 mps 675 mmHg 68%
12:00 +23°C° 0.8 mm 1 mps 675 mmHg 72%
13:00 +23°C° 0.8 mm 1 mps 674 mmHg 75%
14:00 +22°C° 1.9 mm 1 mps 674 mmHg 81%
15:00 +20°C° 1.9 mm 2 mps 674 mmHg 86%
16:00 +19°C° 1.9 mm 2 mps 674 mmHg 92%
17:00 +18°C° 3.4 mm 2 mps 674 mmHg 94%
18:00 +16°C° 3.4 mm 1 mps 673 mmHg 96%
19:00 +15°C° 3.4 mm 1 mps 673 mmHg 97%
20:00 +15°C° 2.4 mm 1 mps 674 mmHg 97%
21:00 +15°C° 2.4 mm 1 mps 674 mmHg 96%
22:00 +14°C° 2.4 mm 1 mps 674 mmHg 96%
23:00 +14°C° 0.3 mm 1 mps 674 mmHg 95%

18 August, Tuesday

Time Temperature Precipitation Wind Pressure Humidity
00:00 +14°C° 0.3 mm 1 mps 674 mmHg 95%
01:00 +14°C° 0.3 mm 1 mps 674 mmHg 94%
02:00 +13°C° 0 mm 1 mps 674 mmHg 93%
03:00 +13°C° 0 mm 1 mps 673 mmHg 93%
04:00 +13°C° 0 mm 1 mps 673 mmHg 92%
05:00 +14°C° 0 mm 1 mps 673 mmHg 91%
06:00 +13°C° 0 mm 0 mps 673 mmHg 90%
07:00 +14°C° 0 mm 0 mps 674 mmHg 89%
08:00 +16°C° 0.3 mm 1 mps 674 mmHg 84%
09:00 +18°C° 0.3 mm 1 mps 674 mmHg 79%
10:00 +20°C° 0.3 mm 1 mps 675 mmHg 74%
11:00 +19°C° 1.3 mm 1 mps 674 mmHg 80%
12:00 +16°C° 1.3 mm 2 mps 674 mmHg 86%
13:00 +15°C° 1.3 mm 2 mps 673 mmHg 92%
14:00 +16°C° 0.3 mm 2 mps 673 mmHg 85%
15:00 +18°C° 0.3 mm 1 mps 674 mmHg 78%
16:00 +19°C° 0.3 mm 1 mps 674 mmHg 70%
17:00 +16°C° 0.2 mm 1 mps 674 mmHg 77%
18:00 +15°C° 0.2 mm 1 mps 674 mmHg 84%
19:00 +14°C° 0.2 mm 1 mps 673 mmHg 91%
20:00 +13°C° 0.1 mm 1 mps 674 mmHg 92%
21:00 +12°C° 0.1 mm 1 mps 674 mmHg 93%
22:00 +11°C° 0.1 mm 1 mps 674 mmHg 94%
23:00 +11°C° 0.1 mm 1 mps 674 mmHg 94%
Show more